TimeEDT,TemperatureF,Dew PointF,Humidity,Sea Level PressureIn,VisibilityMPH,Wind Direction,Wind SpeedMPH,Gust SpeedMPH,PrecipitationIn,Events,Conditions,WindDirDegrees,DateUTC
12:54 AM,57.0,51.1,81,29.91,10.0,North,10.4,-,N/A,,Clear,360,2013-05-12 04:54:00
1:54 AM,55.0,48.9,80,29.90,10.0,NNW,12.7,-,N/A,,Clear,340,2013-05-12 05:54:00
2:54 AM,53.1,48.0,83,29.89,10.0,North,13.8,19.6,N/A,,Clear,350,2013-05-12 06:54:00
3:54 AM,52.0,46.0,80,29.89,10.0,North,11.5,-,N/A,,Clear,350,2013-05-12 07:54:00
4:54 AM,51.1,45.0,80,29.90,10.0,North,10.4,-,N/A,,Clear,360,2013-05-12 08:54:00
5:54 AM,50.0,46.9,89,29.91,10.0,North,6.9,-,N/A,,Clear,350,2013-05-12 09:54:00
6:54 AM,52.0,46.9,83,29.92,10.0,NNW,13.8,18.4,N/A,,Mostly Cloudy,340,2013-05-12 10:54:00
7:54 AM,53.1,46.9,80,29.93,10.0,NNW,21.9,26.5,N/A,,Partly Cloudy,340,2013-05-12 11:54:00
8:54 AM,55.0,44.1,67,29.95,10.0,NNW,16.1,28.8,N/A,,Partly Cloudy,330,2013-05-12 12:54:00
9:54 AM,55.9,43.0,62,29.96,10.0,North,11.5,23.0,N/A,,Clear,360,2013-05-12 13:54:00
10:54 AM,57.9,43.0,58,29.96,10.0,North,15.0,23.0,N/A,,Clear,350,2013-05-12 14:54:00
11:54 AM,59.0,37.9,46,29.97,10.0,North,13.8,25.3,N/A,,Clear,360,2013-05-12 15:54:00
12:54 PM,61.0,36.0,39,29.97,10.0,North,18.4,28.8,N/A,,Clear,350,2013-05-12 16:54:00
1:54 PM,61.0,35.1,38,29.96,10.0,North,18.4,26.5,N/A,,Clear,10,2013-05-12 17:54:00
2:54 PM,61.0,34.0,36,29.96,10.0,North,20.7,28.8,N/A,,Clear,360,2013-05-12 18:54:00
3:54 PM,62.1,34.0,35,29.95,10.0,North,17.3,33.4,N/A,,Clear,360,2013-05-12 19:54:00
4:54 PM,61.0,33.1,35,29.96,10.0,North,19.6,34.5,N/A,,Clear,350,2013-05-12 20:54:00
5:54 PM,59.0,30.0,33,29.98,10.0,North,18.4,31.1,N/A,,Clear,360,2013-05-12 21:54:00
6:54 PM,57.9,30.0,35,30.00,10.0,North,15.0,21.9,N/A,,Clear,360,2013-05-12 22:54:00
7:54 PM,55.9,30.0,37,30.02,10.0,North,16.1,24.2,N/A,,Clear,350,2013-05-12 23:54:00
8:54 PM,53.1,30.0,41,30.04,10.0,North,5.8,-,N/A,,Clear,360,2013-05-13 00:54:00
9:54 PM,48.9,33.1,54,30.06,10.0,NW,10.4,-,N/A,,Clear,320,2013-05-13 01:54:00
10:54 PM,50.0,30.0,46,30.06,10.0,North,6.9,-,N/A,,Clear,350,2013-05-13 02:54:00
11:54 PM,48.0,30.0,50,30.08,10.0,NNW,8.1,-,N/A,,Clear,330,2013-05-13 03:54:00